N0ZMJ-4 Weather Reports


time (UTC)temp
C
wind
direction
speed
KPH
gust
KPH
rain 1hr
cm
rain 24hr
cm
rain mn
cm
humidity
%
barometer
mb
20260504181002 12 299 8.0 29.0 0.00 0.00 0.00 54 1004.2
20260504180503 12 328 9.7 22.5 0.00 0.00 0.00 55 1004.1
20260504180002 12 303 8.0 22.5 0.00 0.00 0.00 55 1004.1
20260504175503 12 327 9.7 27.4 0.00 0.00 0.00 57 1004.1
20260504175003 12 323 11.3 27.4 0.00 0.00 0.00 54 1004.1
20260504174503 12 313 8.0 24.1 0.00 0.00 0.00 54 1004.0
20260504174003 12 334 9.7 25.7 0.00 0.00 0.00 54 1003.8
20260504173503 12 329 14.5 25.7 0.00 0.00 0.00 51 1003.9
20260504173003 12 327 12.9 30.6 0.00 0.00 0.00 50 1004.0
20260504172502 12 330 9.7 30.6 0.00 0.00 0.00 49 1003.7
20260504172003 13 329 8.0 29.0 0.00 0.00 0.00 49 1003.7
20260504171502 13 312 9.7 24.1 0.00 0.00 0.00 48 1003.7
20260504171003 13 307 9.7 24.1 0.00 0.00 0.00 46 1003.6
20260504170503 13 312 8.0 24.1 0.00 0.00 0.00 47 1003.4
20260504151003 13 311 8.0 22.5 0.00 0.00 0.00 64 1002.0
20260504150503 12 330 9.7 22.5 0.00 0.00 0.00 63 1001.9
20260504141002 11 334 9.7 17.7 0.00 0.00 0.00 69 1001.7
20260504140503 11 323 6.4 16.1 0.00 0.00 0.00 70 1001.7
20260504130503 11 332 4.8 9.7 0.00 0.00 0.00 79 1001.2
20260504110503 10 304 3.2 12.9 0.00 0.00 0.00 79 999.6
20260504100503 12 253 8.0 19.3 0.00 0.00 0.00 68 999.4
20260504082003 13 232 8.0 16.1 0.00 0.00 0.00 54 999.2
20260504081502 13 215 8.0 20.9 0.00 0.00 0.00 54 999.3
20260504081003 13 220 11.3 22.5 0.00 0.00 0.00 53 999.3
20260504080502 13 219 12.9 22.5 0.00 0.00 0.00 52 999.4
20260504050502 12 219 6.4 12.9 0.00 0.00 0.00 54 1002.1
20260504050003 12 223 6.4 11.3 0.00 0.00 0.00 53 1002.3
20260504045503 12 217 3.2 9.7 0.00 0.00 0.00 53 1002.3
20260504045003 12 217 4.8 9.7 0.00 0.00 0.00 53 1002.4
20260504044503 12 233 4.8 9.7 0.00 0.00 0.00 53 1002.4
20260504044002 12 240 3.2 11.3 0.00 0.00 0.00 52 1002.4
20260504043503 12 217 4.8 11.3 0.00 0.00 0.00 52 1002.6
20260504043003 12 224 4.8 8.0 0.00 0.00 0.00 52 1002.6
20260504042503 12 224 3.2 11.3 0.00 0.00 0.00 52 1002.5
20260504042003 12 224 4.8 11.3 0.00 0.00 0.00 51 1002.7
20260504041503 12 216 4.8 11.3 0.00 0.00 0.00 51 1002.6
20260504041003 12 233 4.8 9.7 0.00 0.00 0.00 50 1002.9
20260504040502 12 234 4.8 9.7 0.00 0.00 0.00 49 1002.9
20260504040003 12 234 3.2 8.0 0.00 0.00 0.00 49 1003.0
20260504035502 12 234 4.8 9.7 0.00 0.00 0.00 49 1003.2
20260504035003 12 234 4.8 9.7 0.00 0.00 0.00 48 1003.4
20260504034503 12 242 3.2 9.7 0.00 0.00 0.00 48 1003.4
20260504034003 12 264 1.6 8.0 0.00 0.00 0.00 49 1003.5
20260504033503 12 264 3.2 8.0 0.00 0.00 0.00 49 1003.6
20260504033003 12 264 3.2 8.0 0.00 0.00 0.00 49 1003.6
20260504032503 12 264 3.2 6.4 0.00 0.00 0.00 50 1003.6
20260504032002 12 264 1.6 6.4 0.00 0.00 0.00 49 1003.8
20260504031503 12 264 1.6 6.4 0.00 0.00 0.00 50 1003.9
20260504031002 12 264 1.6 4.8 0.00 0.00 0.00 49 1004.0
20260504030503 12 264 0.0 4.8 0.00 0.00 0.00 49 1004.1
20260504030003 12 264 1.6 6.4 0.00 0.00 0.00 49 1004.0
20260504025503 12 264 1.6 6.4 0.00 0.00 0.00 49 1004.0
20260504025003 13 264 1.6 4.8 0.00 0.00 0.00 49 1003.9
20260504024502 13 264 1.6 4.8 0.00 0.00 0.00 47 1004.1
20260504024003 13 264 1.6 4.8 0.00 0.00 0.00 47 1004.1
20260504023502 13 264 0.0 4.8 0.00 0.00 0.00 46 1004.2
20260504023003 13 264 1.6 6.4 0.00 0.00 0.00 45 1004.3
20260504022503 14 264 1.6 6.4 0.00 0.00 0.00 44 1004.2
20260504022003 14 264 1.6 6.4 0.00 0.00 0.00 44 1004.3
20260504021503 15 264 1.6 4.8 0.00 0.00 0.00 43 1004.3
20260504021002 15 264 1.6 4.8 0.00 0.00 0.00 42 1004.3
20260504020503 15 264 0.0 6.4 0.00 0.00 0.00 41 1004.3
20260504020002 15 264 3.2 6.4 0.00 0.00 0.00 41 1004.4
20260504015503 16 264 1.6 6.4 0.00 0.00 0.00 40 1004.4
20260504015003 16 264 1.6 3.2 0.00 0.00 0.00 40 1004.5
20260504014503 16 264 1.6 4.8 0.00 0.00 0.00 40 1004.5
20260504014003 16 264 1.6 8.0 0.00 0.00 0.00 38 1004.5
20260504013503 17 264 1.6 8.0 0.00 0.00 0.00 37 1004.6
20260504013003 17 264 1.6 4.8 0.00 0.00 0.00 36 1004.6
20260504012503 17 264 1.6 4.8 0.00 0.00 0.00 36 1004.6
20260504012003 17 264 3.2 8.0 0.00 0.00 0.00 35 1004.6
20260504011502 17 264 0.0 8.0 0.00 0.00 0.00 35 1004.7
20260504011003 18 264 1.6 9.7 0.00 0.00 0.00 34 1004.6
20260504010503 18 264 3.2 9.7 0.00 0.00 0.00 34 1004.7
20260504010003 18 265 3.2 9.7 0.00 0.00 0.00 33 1004.7
20260504005503 19 269 3.2 12.9 0.00 0.00 0.00 33 1004.7
20260504005004 19 240 3.2 12.9 0.00 0.00 0.00 32 1004.8
20260504004503 19 237 3.2 9.7 0.00 0.00 0.00 32 1004.7
20260504004002 20 237 4.8 16.1 0.00 0.00 0.00 31 1004.8
20260504003503 20 242 6.4 17.7 0.00 0.00 0.00 31 1004.8
20260504003003 20 250 6.4 17.7 0.00 0.00 0.00 31 1004.9
20260504002503 20 243 6.4 14.5 0.00 0.00 0.00 30 1004.8
20260504002003 20 245 6.4 17.7 0.00 0.00 0.00 31 1004.9
20260504001503 20 249 4.8 17.7 0.00 0.00 0.00 30 1004.9
20260504001003 20 249 8.0 16.1 0.00 0.00 0.00 29 1005.0
20260504000502 20 230 6.4 16.1 0.00 0.00 0.00 29 1005.1
20260504000003 20 249 6.4 17.7 0.00 0.00 0.00 29 1005.1
20260503235502 20 230 3.2 19.3 0.00 0.00 0.00 31 1005.1
20260503235003 20 239 8.0 22.5 0.00 0.00 0.00 29 1005.1
20260503234502 21 241 8.0 22.5 0.00 0.00 0.00 30 1005.2
20260503234003 21 237 8.0 14.5 0.00 0.00 0.00 28 1005.3
20260503233503 21 257 6.4 17.7 0.00 0.00 0.00 31 1005.4
20260503233003 21 245 6.4 17.7 0.00 0.00 0.00 29 1005.5
20260503232503 21 248 9.7 17.7 0.00 0.00 0.00 28 1005.5
20260503232002 21 243 4.8 17.7 0.00 0.00 0.00 31 1005.5
20260503231503 21 243 8.0 17.7 0.00 0.00 0.00 27 1005.6
20260503231002 21 257 4.8 16.1 0.00 0.00 0.00 30 1005.7
20260503230503 21 243 8.0 22.5 0.00 0.00 0.00 28 1005.7
20260503230003 21 242 8.0 22.5 0.00 0.00 0.00 31 1005.8
20260503225503 21 247 8.0 17.7 0.00 0.00 0.00 30 1005.7
20260503225003 21 227 6.4 17.7 0.00 0.00 0.00 31 1005.7
20260503224502 21 248 6.4 24.1 0.00 0.00 0.00 31 1005.8
20260503224003 21 241 9.7 24.1 0.00 0.00 0.00 31 1006.0
20260503223502 21 257 4.8 19.3 0.00 0.00 0.00 33 1006.0
20260503223003 21 242 4.8 19.3 0.00 0.00 0.00 34 1006.0
20260503222503 21 244 8.0 19.3 0.00 0.00 0.00 33 1006.0
20260503222003 21 233 9.7 17.7 0.00 0.00 0.00 33 1006.0
20260503221503 21 250 6.4 16.1 0.00 0.00 0.00 35 1006.0
20260503221003 21 239 6.4 17.7 0.00 0.00 0.00 34 1006.0
20260503220503 21 237 9.7 17.7 0.00 0.00 0.00 34 1006.2
20260503220002 21 240 6.4 16.1 0.00 0.00 0.00 35 1006.1
20260503215503 21 228 4.8 20.9 0.00 0.00 0.00 35 1006.2
20260503215003 21 262 4.8 20.9 0.00 0.00 0.00 35 1006.3
20260503214503 21 230 9.7 19.3 0.00 0.00 0.00 36 1006.2
20260503214003 21 254 6.4 27.4 0.00 0.00 0.00 33 1006.4
20260503213503 21 249 11.3 27.4 0.00 0.00 0.00 35 1006.5
20260503213003 21 253 6.4 17.7 0.00 0.00 0.00 36 1006.6
20260503212502 21 242 8.0 17.7 0.00 0.00 0.00 37 1006.6
20260503212003 21 270 4.8 14.5 0.00 0.00 0.00 37 1006.8
20260503211502 21 317 1.6 12.9 0.00 0.00 0.00 40 1006.8
20260503211003 21 237 3.2 12.9 0.00 0.00 0.00 38 1007.0
20260503210503 21 277 6.4 16.1 0.00 0.00 0.00 38 1007.1
20260503210003 21 287 4.8 16.1 0.00 0.00 0.00 37 1007.1
20260503205503 21 244 6.4 17.7 0.00 0.00 0.00 36 1007.1
20260503205003 21 240 8.0 17.7 0.00 0.00 0.00 35 1007.1
20260503204503 20 320 3.2 29.0 0.00 0.00 0.00 39 1007.2
20260503204002 20 252 6.4 29.0 0.00 0.00 0.00 37 1007.3
20260503203503 20 249 4.8 19.3 0.00 0.00 0.00 38 1007.4
20260503203002 20 289 8.0 19.3 0.00 0.00 0.00 38 1007.6
20260503202503 20 316 8.0 14.5 0.00 0.00 0.00 38 1007.6
20260503202003 20 330 6.4 14.5 0.00 0.00 0.00 37 1007.6
20260503201503 20 266 4.8 14.5 0.00 0.00 0.00 40 1007.7
20260503201003 20 272 4.8 14.5 0.00 0.00 0.00 35 1008.0
20260503200502 20 314 6.4 22.5 0.00 0.00 0.00 38 1008.0
20260503200003 20 322 8.0 22.5 0.00 0.00 0.00 37 1008.1
20260503195503 20 283 1.6 16.1 0.00 0.00 0.00 40 1008.2
20260503195003 20 330 4.8 16.1 0.00 0.00 0.00 41 1008.2
20260503194503 20 296 4.8 12.9 0.00 0.00 0.00 40 1008.3
20260503194003 20 289 6.4 19.3 0.00 0.00 0.00 40 1008.3
20260503193503 19 309 4.8 19.3 0.00 0.00 0.00 40 1008.3
20260503193003 19 324 8.0 14.5 0.00 0.00 0.00 38 1008.4
20260503192503 19 260 6.4 14.5 0.00 0.00 0.00 41 1008.3
20260503192002 19 259 6.4 19.3 0.00 0.00 0.00 41 1008.5
20260503191503 19 308 6.4 19.3 0.00 0.00 0.00 40 1008.4
20260503191003 19 330 6.4 16.1 0.00 0.00 0.00 39 1008.6
20260503190503 19 316 4.8 16.1 0.00 0.00 0.00 43 1008.6
20260503190003 19 291 4.8 16.1 0.00 0.00 0.00 41 1008.7
20260503185503 19 294 6.4 16.1 0.00 0.00 0.00 41 1008.8
20260503185003 19 295 4.8 16.1 0.00 0.00 0.00 43 1008.9
20260503184503 19 320 8.0 22.5 0.00 0.00 0.00 40 1008.9
20260503184003 19 321 6.4 22.5 0.00 0.00 0.00 43 1008.9
20260503183502 19 303 4.8 16.1 0.00 0.00 0.00 41 1009.1
20260503183003 19 336 6.4 16.1 0.00 0.00 0.00 42 1009.1
20260503182503 18 332 4.8 16.1 0.00 0.00 0.00 44 1009.0
20260503182003 18 261 4.8 17.7 0.00 0.00 0.00 45 1009.2
20260503181504 18 319 6.4 20.9 0.00 0.00 0.00 42 1009.2